Regional Weather Roundup
Issued by NWS Goodland, KS

Home | Current Version | Previous Version | Text Only | Print | Product List | Glossary On
Versions: 1 2 3 4 5 6 7 8 9 10 11 12 13 14 15 16 17 18 19 20 21 22 23 24 25 26 27 28 29 30 31 32 33 34 35 36 37 38 39 40 41 42 43 44 45 46 47 48 49 50
000
ASUS43 KGLD 051708
RWRGLD

GOODLAND FORECAST AREA HOURLY WEATHER ROUNDUP
NATIONAL WEATHER SERVICE GOODLAND KS
1100 AM MDT SUN JUL 05 2015

...OFFICIAL OBSERVATIONS...

CITY           SKY/WX    TMP DP  RH WIND       PRES   REMARKS
GOODLAND KS    SUNNY     91  59  33 S12       29.87F
HILL CITY KS   SUNNY     95  64  35 S15G24    29.83F
IMPERIAL NEB   SUNNY     90  63  40 E7        29.84S
MCCOOK NEB     SUNNY     92  63  38 SE13      29.82F
AKRON CO       MOSUNNY   88  53  30 SW12      29.94S
BURLINGTON CO  SUNNY     91  53  27 SW13      29.92S
LIMON CO       SUNNY     84  56  38 SE7       30.00S
$$

...UNOFFICIAL OBSERVATIONS...

CITY           SKY/WX    TMP DP  RH WIND       PRES   REMARKS
COLBY KS       SUNNY     95  61  31 S10       29.87R
GOVE KS          N/A     92  32  12 MISG        N/A
NORTON KS      SUNNY     93  57  29 S12G17    29.82F
SHARON SPRINGS   N/A     93  61  34 S12G18      N/A
KIT CARSON CO    N/A     92  56  29 MISG        N/A
YUMA CO          N/A     90  55  30 SW5G13      N/A
$$



USA.gov is the U.S. government's official web portal to all federal, state and local government web resources and services.